Crane Lake, MN

8:37 PM CDT on August 20, 2019 (GMT -0500)
Crane Lake

Weather History for KCDD - June, 2019

Change the Weather History Date:

Friday, June 7, 2019

  Actual Average Record
Temperature  
Mean Temperature 66 °F -  
Max Temperature 87 °F 67 °F 87 °F (2019)
Min Temperature 46 °F 45 °F 32 °F (2013)
Cooling Degree Days 2    
Growing Degree Days 16 (Base 50)    
Moisture  
Dew Point 54 °F    
Average Humidity 63    
Maximum Humidity 100    
Minimum Humidity 29    
Precipitation  
Precipitation 0.00 in - - ()
Sea Level Pressure  
Sea Level Pressure 29.88 in    
Wind  
Wind Speed 3 mph (South)    
Max Wind Speed 12 mph    
Max Gust Speed 20 mph    
Visibility 10 miles    
Events      
Averages and records for this station are not official NWS values.
T = Trace of Precipitation, MM = Missing Value Source: NWS Daily Summary

Daily Weather History Graph

Daily Weather History Graph

Search for Another Location

Airport or City:

Astronomy

Jun. 07, 2019 Rise Set
Actual Time 5:10 AM CDT 9:07 PM CDT
Civil Twilight 4:29 AM CDT 9:48 PM CDT
Nautical Twilight 3:32 AM CDT 10:45 PM CDT
Astronomical Twilight 2:02 AM CDT 12:17 AM CDT
Moon 9:33 AM CDT (6/7) 12:20 AM CDT (6/7)
Length of Visible Light 17h 19m
Length of Day
15h 57m
Waxing Crescent, 22% of the Moon is Illuminated
Jun 7
Waxing Crescent
Jun 10
First Quarter
Jun 17
Full
Jun 25
Last Quarter
Jul 2
New

Hourly Weather History & Observations

Time (CDT) Temp. Heat Index Dew Point Humidity Pressure Visibility Wind Dir Wind Speed Gust Speed Precip Events Conditions
12:11 AM 53.6 °F - 51.8 °F 94% 29.91 in 7.0 mi Calm Calm - N/A   Clear
12:31 AM 51.8 °F - 51.8 °F 100% 29.91 in 10.0 mi Calm Calm - N/A   Clear
12:51 AM 51.8 °F - 51.8 °F 100% 29.91 in 10.0 mi Calm Calm - N/A   Clear
12:55 AM 51.8 °F - 51.8 °F 100% 29.91 in 10.0 mi Calm Calm - N/A   Clear
1:55 AM 50.0 °F - 50.0 °F 100% 29.90 in 7.0 mi Calm Calm - N/A   Clear
2:55 AM 48.2 °F - 48.2 °F 100% 29.91 in 10.0 mi Calm Calm - N/A   Clear
3:31 AM 48.2 °F - 46.4 °F 93% 29.91 in 10.0 mi Calm Calm - N/A   Clear
3:55 AM 46.4 °F - 46.4 °F 100% 29.91 in 10.0 mi Calm Calm - N/A   Clear
4:31 AM 46.4 °F - 46.4 °F 100% 29.91 in 7.0 mi Calm Calm - N/A   Clear
4:55 AM 46.4 °F - 46.4 °F 100% 29.91 in 7.0 mi Calm Calm - N/A   Clear
6:50 AM 50.0 °F - 50.0 °F 100% 29.92 in 7.0 mi Calm Calm - N/A   Clear
6:55 AM 51.8 °F - 51.8 °F 100% 29.91 in 10.0 mi Calm Calm - N/A   Clear
7:10 AM 53.6 °F - 53.6 °F 100% 29.92 in 10.0 mi Calm Calm - N/A   Clear
7:50 AM 60.8 °F - 57.2 °F 88% 29.91 in 10.0 mi Calm Calm - N/A   Clear
7:55 AM 60.8 °F - 57.2 °F 88% 29.91 in 10.0 mi Calm Calm - N/A   Clear
8:31 AM 66.2 °F - 55.4 °F 68% 29.90 in 10.0 mi South 3.5 mph - N/A   Clear
8:55 AM 69.8 °F - 55.4 °F 60% 29.90 in 10.0 mi South 5.8 mph - N/A   Clear
10:11 AM 73.4 °F - 57.2 °F 57% 29.89 in 10.0 mi South 4.6 mph - N/A   Clear
10:55 AM 77.0 °F - 57.2 °F 50% 29.89 in 10.0 mi Calm Calm - N/A   Clear
11:55 AM 82.4 °F 82.0 °F 57.2 °F 42% 29.88 in 10.0 mi South 3.5 mph - N/A   Clear
12:11 PM 82.4 °F 81.7 °F 55.4 °F 39% 29.88 in 10.0 mi South 4.6 mph - N/A   Clear
12:55 PM 84.2 °F 83.0 °F 55.4 °F 37% 29.87 in 10.0 mi South 5.8 mph - N/A   Clear
1:31 PM 84.2 °F 83.0 °F 55.4 °F 37% 29.86 in 10.0 mi South 8.1 mph - N/A   Clear
1:51 PM 86.0 °F 84.5 °F 55.4 °F 35% 29.86 in 10.0 mi South 10.4 mph - N/A   Clear
1:55 PM 86.0 °F 84.5 °F 55.4 °F 35% 29.85 in 10.0 mi South 10.4 mph - N/A   Clear
2:51 PM 86.0 °F 84.5 °F 55.4 °F 35% 29.84 in 10.0 mi South 10.4 mph - N/A   Scattered Clouds
2:55 PM 86.0 °F 84.2 °F 53.6 °F 33% 29.84 in 10.0 mi South 6.9 mph - N/A   Scattered Clouds
3:30 PM 87.8 °F 85.7 °F 53.6 °F 31% 29.83 in 10.0 mi SSW 5.8 mph - N/A   Scattered Clouds
3:55 PM 86.0 °F - 51.8 °F 31% 29.83 in 10.0 mi South 6.9 mph - N/A   Clear
4:10 PM 87.8 °F - 51.8 °F 29% 29.83 in 10.0 mi South 10.4 mph 19.6 mph N/A   Scattered Clouds
4:51 PM 87.8 °F 85.7 °F 53.6 °F 31% 29.83 in 10.0 mi South 10.4 mph 17.3 mph N/A   Scattered Clouds
4:55 PM 87.8 °F 85.7 °F 53.6 °F 31% 29.83 in 10.0 mi SSW 9.2 mph 17.3 mph N/A   Clear
5:55 PM 84.2 °F 83.0 °F 55.4 °F 37% 29.83 in 10.0 mi South 10.4 mph 17.3 mph N/A   Clear
6:31 PM 84.2 °F 83.5 °F 57.2 °F 40% 29.83 in 10.0 mi SSE 11.5 mph 18.4 mph N/A   Clear
6:55 PM 82.4 °F 82.0 °F 57.2 °F 42% 29.84 in 10.0 mi South 8.1 mph - N/A   Scattered Clouds
7:55 PM 80.6 °F 80.8 °F 57.2 °F 45% 29.83 in 10.0 mi South 6.9 mph - N/A   Clear
8:51 PM 78.8 °F - 59.0 °F 51% 29.85 in 10.0 mi SSE 5.8 mph - N/A   Clear
8:55 PM 78.8 °F - 59.0 °F 51% 29.85 in 10.0 mi SSE 5.8 mph - N/A   Clear
9:55 PM 73.4 °F - 59.0 °F 61% 29.87 in 10.0 mi SSE 4.6 mph - N/A   Clear
10:55 PM 73.4 °F - 55.4 °F 53% 29.87 in 10.0 mi SSE 4.6 mph - N/A   Clear
11:30 PM 71.6 °F - 55.4 °F 57% 29.88 in 10.0 mi SSE 6.9 mph - N/A   Clear
11:55 PM 71.6 °F - 55.4 °F 57% 29.88 in 10.0 mi South 6.9 mph - N/A   Clear